When you browse on this site, cookies collect data to enhance your experience and personalize the content and advertising you see.
Visit our Privacy Policy to learn more. By continuing to use the site, you agree to this use of cookies and data.
  • In Latvia
  • List of Countries
  • For 7 days
  • Water Temperature
  • Satellite Maps
  • Weather Map
  • Weather Widgets
  • user-avatar
    Login

    Hourly Weather Vetelki

    Today, 16 June, Sunday

    Time Temperature Precipitation Wind Pressure Humidity
    00:00 +16°C° 0 mm 2 mps 756 mmHg 79%
    01:00 +15°C° 0 mm 2 mps 756 mmHg 80%
    02:00 +15°C° 0 mm 2 mps 756 mmHg 82%
    03:00 +14°C° 0 mm 2 mps 757 mmHg 83%
    04:00 +15°C° 0 mm 2 mps 756 mmHg 78%
    05:00 +16°C° 0 mm 2 mps 756 mmHg 73%
    06:00 +18°C° 0 mm 2 mps 756 mmHg 69%
    07:00 +19°C° 0 mm 2 mps 756 mmHg 63%
    08:00 +21°C° 0 mm 2 mps 756 mmHg 57%
    09:00 +22°C° 0 mm 3 mps 756 mmHg 50%
    10:00 +24°C° 0 mm 2 mps 756 mmHg 47%
    11:00 +25°C° 0 mm 2 mps 756 mmHg 43%
    12:00 +26°C° 0 mm 2 mps 756 mmHg 39%
    13:00 +27°C° 0 mm 2 mps 756 mmHg 38%
    14:00 +27°C° 0 mm 1 mps 756 mmHg 36%
    15:00 +28°C° 0 mm 1 mps 755 mmHg 34%
    16:00 +28°C° 0 mm 2 mps 755 mmHg 35%
    17:00 +27°C° 0 mm 2 mps 755 mmHg 37%
    18:00 +27°C° 0 mm 2 mps 755 mmHg 38%
    19:00 +25°C° 0 mm 3 mps 755 mmHg 42%
    20:00 +23°C° 0 mm 4 mps 755 mmHg 47%
    21:00 +21°C° 0 mm 5 mps 755 mmHg 52%
    22:00 +20°C° 0 mm 4 mps 755 mmHg 54%
    23:00 +19°C° 0 mm 4 mps 755 mmHg 57%

    Tomorrow, 17 June, Monday

    Time Temperature Precipitation Wind Pressure Humidity
    00:00 +18°C° 0 mm 3 mps 755 mmHg 59%
    01:00 +18°C° 0 mm 3 mps 756 mmHg 60%
    02:00 +17°C° 0 mm 3 mps 756 mmHg 61%
    03:00 +17°C° 0 mm 2 mps 756 mmHg 62%
    04:00 +17°C° 0 mm 3 mps 756 mmHg 60%
    05:00 +18°C° 0 mm 3 mps 756 mmHg 58%
    06:00 +19°C° 0 mm 3 mps 757 mmHg 56%
    07:00 +20°C° 0 mm 3 mps 757 mmHg 52%
    08:00 +22°C° 0 mm 3 mps 757 mmHg 49%
    09:00 +24°C° 0 mm 2 mps 758 mmHg 45%
    10:00 +25°C° 0 mm 2 mps 758 mmHg 41%
    11:00 +26°C° 0 mm 2 mps 758 mmHg 38%
    12:00 +27°C° 0 mm 2 mps 758 mmHg 35%
    13:00 +27°C° 0 mm 2 mps 757 mmHg 33%
    14:00 +28°C° 0 mm 2 mps 757 mmHg 32%
    15:00 +28°C° 0 mm 3 mps 757 mmHg 30%
    16:00 +28°C° 0 mm 3 mps 757 mmHg 32%
    17:00 +28°C° 0 mm 3 mps 757 mmHg 33%
    18:00 +28°C° 0 mm 3 mps 757 mmHg 34%
    19:00 +26°C° 0 mm 3 mps 757 mmHg 38%
    20:00 +24°C° 0 mm 3 mps 757 mmHg 43%
    21:00 +21°C° 0 mm 2 mps 758 mmHg 47%
    22:00 +20°C° 0 mm 2 mps 758 mmHg 50%
    23:00 +20°C° 0 mm 2 mps 758 mmHg 54%

    Day after tomorrow, 18 June, Tuesday

    Time Temperature Precipitation Wind Pressure Humidity
    00:00 +19°C° 0 mm 2 mps 758 mmHg 57%
    01:00 +18°C° 0 mm 2 mps 758 mmHg 59%
    02:00 +18°C° 0 mm 2 mps 758 mmHg 61%
    03:00 +18°C° 0 mm 1 mps 758 mmHg 64%
    04:00 +20°C° 0 mm 1 mps 758 mmHg 59%
    05:00 +21°C° 0 mm 1 mps 758 mmHg 55%
    06:00 +21°C° 0 mm 0 mps 758 mmHg 50%
    07:00 +22°C° 0 mm 0 mps 758 mmHg 46%
    08:00 +24°C° 0 mm 0 mps 758 mmHg 42%
    09:00 +25°C° 0 mm 0 mps 758 mmHg 38%
    10:00 +28°C° 0 mm 1 mps 758 mmHg 36%
    11:00 +29°C° 0 mm 1 mps 758 mmHg 34%
    12:00 +29°C° 0 mm 1 mps 758 mmHg 31%
    13:00 +29°C° 0 mm 2 mps 757 mmHg 32%
    14:00 +29°C° 0 mm 3 mps 757 mmHg 33%
    15:00 +29°C° 0 mm 4 mps 757 mmHg 34%
    16:00 +29°C° 0 mm 4 mps 756 mmHg 35%
    17:00 +29°C° 0 mm 4 mps 756 mmHg 37%
    18:00 +28°C° 0 mm 4 mps 756 mmHg 38%
    19:00 +26°C° 0 mm 3 mps 756 mmHg 43%
    20:00 +24°C° 0 mm 2 mps 756 mmHg 49%
    21:00 +22°C° 0 mm 1 mps 757 mmHg 54%
    22:00 +22°C° 0 mm 1 mps 756 mmHg 55%
    23:00 +22°C° 0 mm 1 mps 756 mmHg 56%

    19 June, Wednesday

    Time Temperature Precipitation Wind Pressure Humidity
    00:00 +21°C° 0 mm 1 mps 756 mmHg 58%
    01:00 +21°C° 0 mm 1 mps 756 mmHg 58%
    02:00 +21°C° 0 mm 1 mps 756 mmHg 59%
    03:00 +21°C° 0 mm 1 mps 756 mmHg 59%
    04:00 +21°C° 0 mm 2 mps 756 mmHg 57%
    05:00 +23°C° 0 mm 2 mps 756 mmHg 55%
    06:00 +25°C° 0 mm 2 mps 757 mmHg 53%
    07:00 +26°C° 0 mm 2 mps 757 mmHg 51%
    08:00 +27°C° 0 mm 2 mps 757 mmHg 49%
    09:00 +28°C° 0 mm 3 mps 757 mmHg 47%
    10:00 +29°C° 0 mm 3 mps 756 mmHg 44%
    11:00 +30°C° 0 mm 3 mps 756 mmHg 41%
    12:00 +30°C° 0 mm 4 mps 756 mmHg 38%
    13:00 +30°C° 0 mm 4 mps 756 mmHg 38%
    14:00 +32°C° 0 mm 4 mps 756 mmHg 37%
    15:00 +32°C° 0 mm 4 mps 756 mmHg 36%
    16:00 +30°C° 0 mm 4 mps 756 mmHg 37%
    17:00 +30°C° 0 mm 4 mps 756 mmHg 37%
    18:00 +30°C° 0 mm 4 mps 756 mmHg 38%
    19:00 +28°C° 0 mm 4 mps 756 mmHg 42%
    20:00 +27°C° 0 mm 4 mps 757 mmHg 46%
    21:00 +26°C° 0 mm 4 mps 757 mmHg 51%
    22:00 +25°C° 0 mm 3 mps 757 mmHg 54%
    23:00 +24°C° 0 mm 3 mps 757 mmHg 58%

    20 June, Thursday

    Time Temperature Precipitation Wind Pressure Humidity
    00:00 +22°C° 0 mm 3 mps 757 mmHg 61%
    01:00 +21°C° 0 mm 3 mps 757 mmHg 63%
    02:00 +21°C° 0 mm 3 mps 757 mmHg 65%
    03:00 +20°C° 0 mm 3 mps 757 mmHg 67%
    04:00 +21°C° 0 mm 3 mps 758 mmHg 65%
    05:00 +22°C° 0 mm 3 mps 758 mmHg 63%
    06:00 +22°C° 0 mm 3 mps 758 mmHg 61%
    07:00 +25°C° 0 mm 3 mps 758 mmHg 55%
    08:00 +26°C° 0 mm 3 mps 758 mmHg 50%
    09:00 +28°C° 0 mm 3 mps 759 mmHg 44%
    10:00 +29°C° 0 mm 3 mps 759 mmHg 41%
    11:00 +30°C° 0 mm 3 mps 759 mmHg 38%
    12:00 +32°C° 0 mm 4 mps 759 mmHg 35%
    13:00 +32°C° 0 mm 4 mps 758 mmHg 35%
    14:00 +32°C° 0 mm 4 mps 758 mmHg 36%
    15:00 +32°C° 0 mm 5 mps 758 mmHg 36%
    16:00 +32°C° 0 mm 5 mps 758 mmHg 36%
    17:00 +32°C° 0 mm 5 mps 758 mmHg 36%
    18:00 +30°C° 0 mm 4 mps 758 mmHg 36%
    19:00 +29°C° 0 mm 4 mps 759 mmHg 41%
    20:00 +27°C° 0 mm 4 mps 759 mmHg 46%
    21:00 +25°C° 0 mm 4 mps 759 mmHg 52%
    22:00 +25°C° 0 mm 4 mps 760 mmHg 54%
    23:00 +23°C° 0 mm 4 mps 760 mmHg 56%

    21 June, Friday

    Time Temperature Precipitation Wind Pressure Humidity
    00:00 +22°C° 0 mm 4 mps 760 mmHg 58%
    01:00 +21°C° 0 mm 4 mps 760 mmHg 60%
    02:00 +21°C° 0 mm 3 mps 760 mmHg 61%
    03:00 +20°C° 0 mm 3 mps 760 mmHg 63%
    04:00 +21°C° 0 mm 3 mps 760 mmHg 61%
    05:00 +22°C° 0 mm 3 mps 761 mmHg 59%
    06:00 +24°C° 0 mm 3 mps 761 mmHg 57%
    07:00 +26°C° 0 mm 4 mps 761 mmHg 52%
    08:00 +27°C° 0 mm 4 mps 761 mmHg 47%
    09:00 +29°C° 0 mm 4 mps 761 mmHg 41%
    10:00 +30°C° 0 mm 4 mps 761 mmHg 38%
    11:00 +32°C° 0 mm 4 mps 761 mmHg 35%
    12:00 +33°C° 0 mm 4 mps 761 mmHg 32%
    13:00 +33°C° 0 mm 4 mps 760 mmHg 30%
    14:00 +34°C° 0 mm 4 mps 760 mmHg 29%
    15:00 +34°C° 0 mm 4 mps 760 mmHg 28%
    16:00 +34°C° 0 mm 4 mps 760 mmHg 28%
    17:00 +33°C° 0 mm 4 mps 760 mmHg 28%
    18:00 +33°C° 0 mm 4 mps 760 mmHg 29%
    19:00 +30°C° 0 mm 4 mps 760 mmHg 34%
    20:00 +28°C° 0 mm 4 mps 760 mmHg 39%
    21:00 +26°C° 0 mm 4 mps 760 mmHg 44%
    22:00 +25°C° 0 mm 4 mps 760 mmHg 47%
    23:00 +25°C° 0 mm 4 mps 760 mmHg 49%
    Show more